Regional Weather Roundup
Issued by NWS

Home | Current Version | Previous Version | Text Only | Print | Product List | Glossary Off
Versions: 1 2 3 4 5 6 7 8 9 10 11 12 13 14 15 16 17 18 19 20 21 22 23 24 25 26 27 28 29 30 31 32 33 34 35 36 37 38 39 40 41 42 43 44 45 46 47 48 49 50

080
ASUS45 KBOU 132210
RWRCO

WEATHER ROUNDUP FOR COLORADO
NATIONAL WEATHER SERVICE DENVER/BOULDER CO
300 PM MST WED DEC 13 2017

NOTE: "FAIR" INDICATES FEW OR NO CLOUDS BELOW 12000 FEET WITH NO
SIGNIFICANT WEATHER AND/OR OBSTRUCTIONS TO VISIBILITY.

COZ001>005-013-030-031-132300-
...NORTHWEST COLORADO...

CITY           SKY/WX    TMP DP  RH WIND       PRES   REMARKS
CRAIG          CLOUDY    36  24  62 W3        30.09F
HAYDEN         CLOUDY    37  24  59 CALM      30.09F
MEEKER         CLOUDY    46  11  24 NE3       30.07F
RABBIT EARS PA CLOUDY    28   5  37 W8        30.13F WCI  20
STEAMBOAT SPGS CLOUDY    36  22  57 CALM      30.08F
WALDEN         CLOUDY    39   5  24 W12       30.08F
$$

COZ006>008-011-132300-
...WEST CENTRAL VALLEYS...

CITY           SKY/WX    TMP DP  RH WIND       PRES   REMARKS
GRAND JUNCTION CLOUDY    43  14  31 NW3       30.08F
MONTROSE       CLOUDY    47  12  24 N6        30.08F
EAGLE          CLOUDY    32  15  49 NW5       30.12F WCI  27
RIFLE          CLOUDY    41  14  33 CALM      30.09F
DELTA          CLOUDY    49  11  21 SW8       30.07F
NUCLA          FAIR      52   7  16 NW5       30.11F
$$

COZ017>023-064>068-132300-
...SOUTHWEST COLORADO...

CITY           SKY/WX    TMP DP  RH WIND       PRES   REMARKS
DURANGO        FAIR      49   7  18 CALM      30.07F
CORTEZ         FAIR      44   5  20 SW13      30.09F
PAGOSA SPRINGS FAIR      50  -1  12 S6        30.10S
TELLURIDE      FAIR      49   3  15 W15       30.12F
WOLF CREEK PAS FAIR      32  -2  23 SW10      30.26F WCI  24
$$

COZ009-010-012-014-032>034-037-058>063-132300-
...CENTRAL COLORADO...

CITY           SKY/WX    TMP DP  RH WIND       PRES   REMARKS
ASPEN          CLOUDY    40  11  30 NW8       30.08F
BUENA VISTA    FAIR      53   3  13 SE5       30.04F
COPPER MTN     NOT AVBL
BERTHOUD PASS  CLOUDY    21  10  63 NW32G39   30.12F WCI   2
COTTONWOOD PAS FAIR      48   7  18 W9G23     30.10F
GUNNISON       FAIR      39  10  30 W6        30.10F
KREMMLING      PTSUNNY   36  21  55 CALM      30.11F
LEADVILLE      CLOUDY    37   0  21 VRB3      30.11F
MONARCH PASS   FAIR      32   3  29 SW22      30.28S WCI  19
SALIDA         FAIR      56   1  10 SW7       30.09F
SUNLIGHT       CLOUDY    32  12  43 SW9       30.20F WCI  24
WILKERSON PASS FAIR      37   0  20 W5        30.17S
$$

COZ069>075-132300-
...SAN LUIS VALLEY/SANGRE DE CRISTO MOUNTAINS...

CITY           SKY/WX    TMP DP  RH WIND       PRES   REMARKS
ALAMOSA        FAIR      47   3  16 CALM      30.06F
DEL NORTE      FAIR      47   7  19 E6        30.07F
LA VETA PASS   FAIR      41   0  17 S14G24      N/A
SAGUACHE       FAIR      43   9  24 SE5       30.07F
$$

COZ035-036-038>040-132300-
...NORTHERN COLORADO FRONT RANGE...

CITY           SKY/WX    TMP DP  RH WIND       PRES   REMARKS
DENVER INTL AP PTSUNNY   49   9  19 E5        30.02F
DMNS CITY PARK NOT AVBL
AURORA         PTSUNNY   50   9  19 E7        30.03S
FRONT RANGE AP MOSUNNY   50  10  20 NE5       30.04S
ERIE MUNI ARPT CLOUDY    52   4  14 E6        30.07S
BOULDER MUN AP CLOUDY    50   9  18 S6        30.01S
CENTENNIAL     PTSUNNY   50  10  20 NE5       30.03S
BROOMFIELD     MOSUNNY   50   7  17 E8        30.03F
FORT COLLINS   PTSUNNY   50  11  20 S7        30.02F
LONGMONT       CLOUDY    55   8  15 E6        30.03
$$

COZ041-046-047-076>085-087-088-132300-
...PIKES PEAK/PALMER DIVIDE AND SOUTHERN FOOTHILLS...

CITY           SKY/WX    TMP DP  RH WIND       PRES   REMARKS
COLO. SPRINGS  FAIR      47   8  20 S12       30.04F
A. F. ACADEMY  FAIR      47   4  17 S9        30.03F
SCHRIEVER AFB  FAIR      46   4  18 SW5       30.04F
CHEYENNE MTN   FAIR      41   6  23 SE10      29.99F
ELLICOTT         N/A    N/A N/A N/A SW8       30.03F
FALCON         FAIR      46   2  15 S7G17     30.05F
FORT CARSON    FAIR      49   7  18 SE8       30.02F
LIMON          FAIR      50  11  20 NW7       30.03F
MONUMENT HILL  FAIR      43   7  22 E5        30.06S
CANON CITY     FAIR      54  10  17 E6        30.01F
WALSENBURG     FAIR      54   7  15 SE9       30.02F
TRINIDAD       FAIR      50   9  19 SE6       30.04F
$$

COZ042>045-048>051-090-091-132300-
...NORTHEAST COLORADO...

CITY           SKY/WX    TMP DP  RH WIND       PRES   REMARKS
GREELEY ARPT   CLOUDY    52  11  19 CALM      30.02
AKRON          FAIR      49  11  21 N21G30    30.01F
BURLINGTON     FAIR      52  15  23 N16G26    30.00R
WRAY           FAIR      54  12  19 NW18G26   29.99R
YUMA           FAIR      50  12  22 N23       30.00S
STERLING       FAIR      50  16  25 N18G26    30.01S
HOLYOKE        FAIR      54  14  20 N20G28    30.00R
FORT MORGAN    PTSUNNY   50  10  19 N21       30.02S
$$

COZ086-089-092>099-132300-
...SOUTHEAST COLORADO...

CITY           SKY/WX    TMP DP  RH WIND       PRES   REMARKS
PUEBLO         FAIR      53   8  16 SE10      30.01F
LA JUNTA       FAIR      55  11  17 W5        30.02F
LAMAR          FAIR      60  13  15 N6        29.98F
SPRINGFIELD      N/A     54  14  20 N14       30.02S
$$




USA.gov is the U.S. government's official web portal to all federal, state and local government web resources and services.